When you browse on this site, cookies collect data to enhance your experience and personalize the content and advertising you see.
Visit our Privacy Policy to learn more. By continuing to use the site, you agree to this use of cookies and data.
  • In Hungary
  • List of Countries
  • For 7 days
  • Water Temperature
  • Satellite Maps
  • Weather Map
  • News
  • Weather Widgets
  • user-avatar
    Login

    Hourly Weather Zaragoza

    Today, 18 March, Monday

    Time Temperature Precipitation Wind Pressure Humidity
    00:00 +4°C° 0 mm 11 mps 749 mmHg 64%
    01:00 +4°C° 0 mm 11 mps 749 mmHg 64%
    02:00 +4°C° 0 mm 11 mps 749 mmHg 65%
    03:00 +4°C° 0 mm 11 mps 749 mmHg 65%
    04:00 +4°C° 0 mm 11 mps 749 mmHg 67%
    05:00 +5°C° 0 mm 10 mps 749 mmHg 68%
    06:00 +3°C° 0 mm 10 mps 749 mmHg 70%
    07:00 +6°C° 0 mm 10 mps 749 mmHg 63%
    08:00 +7°C° 0 mm 11 mps 749 mmHg 56%
    09:00 +8°C° 0 mm 11 mps 749 mmHg 49%
    10:00 +11°C° 0 mm 11 mps 749 mmHg 44%
    11:00 +12°C° 0 mm 11 mps 749 mmHg 39%
    12:00 +14°C° 0 mm 10 mps 749 mmHg 34%
    13:00 +14°C° 0 mm 11 mps 748 mmHg 33%
    14:00 +14°C° 0 mm 11 mps 748 mmHg 33%
    15:00 +14°C° 0 mm 11 mps 748 mmHg 33%
    16:00 +13°C° 0 mm 11 mps 748 mmHg 37%
    17:00 +12°C° 0 mm 11 mps 748 mmHg 41%
    18:00 +9°C° 0 mm 11 mps 748 mmHg 45%
    19:00 +8°C° 0 mm 11 mps 749 mmHg 48%
    20:00 +8°C° 0 mm 11 mps 749 mmHg 51%
    21:00 +7°C° 0 mm 11 mps 750 mmHg 54%
    22:00 +7°C° 0 mm 11 mps 750 mmHg 55%
    23:00 +6°C° 0 mm 11 mps 750 mmHg 57%

    Tomorrow, 19 March, Tuesday

    Time Temperature Precipitation Wind Pressure Humidity
    00:00 +6°C° 0 mm 10 mps 750 mmHg 59%
    01:00 +6°C° 0 mm 10 mps 750 mmHg 63%
    02:00 +6°C° 0 mm 9 mps 750 mmHg 68%
    03:00 +5°C° 0 mm 9 mps 749 mmHg 73%
    04:00 +5°C° 0 mm 9 mps 749 mmHg 74%
    05:00 +5°C° 0 mm 9 mps 749 mmHg 75%
    06:00 +5°C° 0 mm 8 mps 749 mmHg 77%
    07:00 +7°C° 0 mm 9 mps 749 mmHg 69%
    08:00 +8°C° 0 mm 9 mps 749 mmHg 61%
    09:00 +11°C° 0 mm 9 mps 749 mmHg 54%
    10:00 +12°C° 0 mm 9 mps 749 mmHg 47%
    11:00 +13°C° 0 mm 9 mps 749 mmHg 41%
    12:00 +16°C° 0 mm 9 mps 749 mmHg 35%
    13:00 +16°C° 0 mm 10 mps 749 mmHg 34%
    14:00 +16°C° 0 mm 10 mps 749 mmHg 33%
    15:00 +16°C° 0 mm 10 mps 749 mmHg 32%
    16:00 +14°C° 0 mm 10 mps 749 mmHg 36%
    17:00 +13°C° 0 mm 10 mps 749 mmHg 39%
    18:00 +11°C° 0 mm 10 mps 750 mmHg 43%
    19:00 +10°C° 0 mm 9 mps 751 mmHg 48%
    20:00 +9°C° 0 mm 8 mps 751 mmHg 52%
    21:00 +8°C° 0 mm 7 mps 752 mmHg 56%
    22:00 +8°C° 0 mm 7 mps 752 mmHg 60%
    23:00 +6°C° 0 mm 7 mps 752 mmHg 64%

    Day after tomorrow, 20 March, Wednesday

    Time Temperature Precipitation Wind Pressure Humidity
    00:00 +7°C° 0 mm 6 mps 752 mmHg 68%
    01:00 +5°C° 0 mm 6 mps 752 mmHg 71%
    02:00 +6°C° 0 mm 5 mps 752 mmHg 74%
    03:00 +5°C° 0 mm 5 mps 752 mmHg 77%
    04:00 +5°C° 0 mm 4 mps 752 mmHg 79%
    05:00 +5°C° 0 mm 4 mps 752 mmHg 81%
    06:00 +4°C° 0 mm 4 mps 752 mmHg 83%
    07:00 +6°C° 0 mm 4 mps 752 mmHg 75%
    08:00 +7°C° 0 mm 4 mps 753 mmHg 67%
    09:00 +10°C° 0 mm 4 mps 753 mmHg 59%
    10:00 +11°C° 0 mm 4 mps 752 mmHg 52%
    11:00 +12°C° 0 mm 3 mps 752 mmHg 46%
    12:00 +15°C° 0 mm 2 mps 752 mmHg 39%
    13:00 +15°C° 0 mm 2 mps 751 mmHg 35%
    14:00 +16°C° 0 mm 2 mps 751 mmHg 31%
    15:00 +18°C° 0 mm 1 mps 750 mmHg 27%
    16:00 +16°C° 0 mm 2 mps 751 mmHg 30%
    17:00 +15°C° 0 mm 2 mps 751 mmHg 33%
    18:00 +14°C° 0 mm 2 mps 752 mmHg 36%
    19:00 +12°C° 0 mm 3 mps 752 mmHg 41%
    20:00 +11°C° 0 mm 3 mps 753 mmHg 45%
    21:00 +10°C° 0 mm 4 mps 754 mmHg 50%
    22:00 +9°C° 0 mm 3 mps 754 mmHg 55%
    23:00 +8°C° 0 mm 3 mps 754 mmHg 60%

    21 March, Thursday

    Time Temperature Precipitation Wind Pressure Humidity
    00:00 +7°C° 0 mm 3 mps 754 mmHg 65%
    01:00 +7°C° 0 mm 2 mps 754 mmHg 68%
    02:00 +6°C° 0 mm 2 mps 753 mmHg 71%
    03:00 +6°C° 0 mm 2 mps 753 mmHg 74%
    04:00 +5°C° 0 mm 2 mps 753 mmHg 75%
    05:00 +5°C° 0 mm 2 mps 753 mmHg 77%
    06:00 +5°C° 0 mm 2 mps 753 mmHg 79%
    07:00 +6°C° 0 mm 2 mps 753 mmHg 71%
    08:00 +8°C° 0 mm 2 mps 753 mmHg 64%
    09:00 +10°C° 0 mm 2 mps 753 mmHg 57%
    10:00 +12°C° 0 mm 2 mps 753 mmHg 50%
    11:00 +14°C° 0 mm 2 mps 753 mmHg 44%
    12:00 +16°C° 0 mm 1 mps 752 mmHg 38%
    13:00 +16°C° 0 mm 1 mps 752 mmHg 34%
    14:00 +18°C° 0 mm 1 mps 752 mmHg 31%
    15:00 +19°C° 0 mm 1 mps 751 mmHg 28%
    16:00 +18°C° 0 mm 1 mps 751 mmHg 31%
    17:00 +16°C° 0 mm 1 mps 751 mmHg 35%
    18:00 +15°C° 0 mm 1 mps 751 mmHg 39%
    19:00 +14°C° 0 mm 1 mps 752 mmHg 39%
    20:00 +13°C° 0 mm 1 mps 753 mmHg 39%
    21:00 +12°C° 0 mm 1 mps 753 mmHg 39%
    22:00 +11°C° 0 mm 1 mps 753 mmHg 42%
    23:00 +10°C° 0 mm 1 mps 753 mmHg 44%

    22 March, Friday

    Time Temperature Precipitation Wind Pressure Humidity
    00:00 +10°C° 0 mm 1 mps 753 mmHg 47%
    01:00 +9°C° 0 mm 1 mps 753 mmHg 50%
    02:00 +9°C° 0 mm 1 mps 753 mmHg 53%
    03:00 +8°C° 0 mm 1 mps 753 mmHg 56%
    04:00 +8°C° 0 mm 1 mps 753 mmHg 60%
    05:00 +7°C° 0 mm 1 mps 753 mmHg 64%
    06:00 +7°C° 0 mm 1 mps 753 mmHg 69%
    07:00 +9°C° 0 mm 1 mps 753 mmHg 62%
    08:00 +11°C° 0 mm 1 mps 753 mmHg 55%
    09:00 +14°C° 0 mm 1 mps 753 mmHg 48%
    10:00 +15°C° 0 mm 1 mps 753 mmHg 42%
    11:00 +18°C° 0 mm 1 mps 753 mmHg 37%
    12:00 +18°C° 0 mm 0 mps 752 mmHg 31%
    13:00 +20°C° 0 mm 1 mps 752 mmHg 29%
    14:00 +20°C° 0 mm 2 mps 752 mmHg 26%
    15:00 +21°C° 0 mm 2 mps 751 mmHg 23%
    16:00 +19°C° 0 mm 2 mps 751 mmHg 26%
    17:00 +18°C° 0 mm 2 mps 751 mmHg 28%
    18:00 +17°C° 0 mm 2 mps 751 mmHg 31%
    19:00 +16°C° 0 mm 2 mps 752 mmHg 32%
    20:00 +15°C° 0 mm 2 mps 752 mmHg 33%
    21:00 +14°C° 0 mm 2 mps 753 mmHg 33%
    22:00 +13°C° 0 mm 2 mps 753 mmHg 34%
    23:00 +12°C° 0 mm 2 mps 753 mmHg 34%

    23 March, Saturday

    Time Temperature Precipitation Wind Pressure Humidity
    00:00 +12°C° 0 mm 2 mps 753 mmHg 34%
    01:00 +10°C° 0 mm 2 mps 752 mmHg 35%
    02:00 +10°C° 0 mm 2 mps 752 mmHg 36%
    03:00 +9°C° 0 mm 2 mps 752 mmHg 38%
    04:00 +9°C° 0 mm 2 mps 752 mmHg 41%
    05:00 +8°C° 0 mm 2 mps 752 mmHg 44%
    06:00 +7°C° 0 mm 2 mps 752 mmHg 48%
    07:00 +10°C° 0 mm 2 mps 752 mmHg 44%
    08:00 +12°C° 0 mm 3 mps 752 mmHg 40%
    09:00 +14°C° 0 mm 3 mps 752 mmHg 37%
    10:00 +17°C° 0 mm 4 mps 751 mmHg 32%
    11:00 +19°C° 0 mm 5 mps 751 mmHg 27%
    12:00 +20°C° 0 mm 6 mps 751 mmHg 22%
    13:00 +21°C° 0 mm 6 mps 750 mmHg 21%
    14:00 +22°C° 0 mm 7 mps 750 mmHg 20%
    15:00 +22°C° 0 mm 7 mps 749 mmHg 19%
    16:00 +21°C° 0 mm 7 mps 749 mmHg 21%
    17:00 +18°C° 0 mm 7 mps 749 mmHg 23%
    18:00 +17°C° 0 mm 7 mps 749 mmHg 26%
    19:00 +15°C° 0 mm 6 mps 750 mmHg 29%
    20:00 +14°C° 0 mm 5 mps 751 mmHg 32%
    21:00 +12°C° 0 mm 4 mps 751 mmHg 36%
    22:00 +12°C° 0 mm 4 mps 751 mmHg 39%
    23:00 +11°C° 0 mm 4 mps 751 mmHg 43%
    Show more